Location: Poinsettia Observatory
(32.9673°N, 117.0346°W)
Time: 01:58:38
(UTC-08:00)

Daily predictions for brighter satellites

Satellite Brightness Start Highest point End
(mag) Time Altitude Azimuth Time Altitude Azimuth Time Altitude Azimuth
CZ-3 R/B 4.1 02:28:40 10° W 03:22:15 60° SSW 03:33:32 10° SE
Cosmos 2237 Rocket 3.1 04:04:42 44° ESE 04:04:42 44° ESE 04:08:57 10° SE
SL-16 R/B 4.2 04:04:45 18° NNE 04:07:17 24° ENE 04:11:46 10° ESE
Cosmos 2297 Rocket 4.1 04:15:15 19° NNE 04:15:15 19° NNE 04:16:48 10° NNE
Cosmos 2227 Rocket 4.4 04:28:46 12° N 04:28:46 12° N 04:29:12 10° N
IUS-9 SRM-1 4.2 04:26:32 39° S 04:26:32 39° S 04:29:48 10° ESE
Thor Agena Rocket 3.4 04:40:34 10° S 04:45:36 73° WSW 04:45:36 73° WSW
Meteor 1-21 Rocket 4.0 04:48:29 67° W 04:48:29 67° W 04:53:56 10° S
Cosmos 1980 4.0 04:51:31 47° SW 04:51:31 47° SW 04:56:03 10° S
Tiangong 2 3.8 04:51:40 15° SSE 04:52:21 16° SE 04:54:21 10° E
Tsikada Rocket 3.9 04:49:34 14° N 04:55:09 73° W 05:01:23 10° S
Cosmos 2333 Rocket 3.3 05:03:33 27° SW 05:03:33 27° SW 05:06:52 10° SSW
SKYMED 2 3.9 04:57:47 10° SSE 05:02:03 65° ENE 05:05:21 17° N
GPS 2-05 Rocket1 3.5 05:03:55 47° ENE 05:03:55 47° ENE 05:06:24 10° ENE
Cosmos 968 Rocket 3.4 04:59:59 10° SSW 05:05:12 70° WNW 05:10:29 10° NNE
Atlas 2A Centaur Rocket 3.6 05:04:48 19° SW 05:06:54 24° S 05:09:18 10° ESE
Cosmos 1725 Rocket 4.5 05:09:23 10° SW 05:14:58 34° WNW 05:20:37 10° NNW
Cosmos 2219 Rocket 4.2 05:19:57 11° SW 05:19:57 11° SW 05:20:25 10° SW
NOAA 6 4.2 05:12:08 10° N 05:17:05 47° WNW 05:22:01 10° SW
Cosmos 1328 3.7 05:16:15 15° N 05:19:31 87° E 05:23:30 10° S
ISS -1.6 05:21:28 21° N 05:22:38 26° NE 05:25:26 10° E
Cosmos 2221 3.1 05:19:20 10° S 05:23:36 60° E 05:27:52 10° NNE
Cosmos 1461 4.3 05:24:49 21° SW 05:24:49 21° SW 05:27:05 10° SSW
Cosmos 304 Rocket 3.6 05:22:03 17° NNW 05:25:42 77° WSW 05:30:26 10° S
Cosmos 1072 Rocket 4.5 05:22:54 10° S 05:29:07 85° E 05:35:17 10° N
OAO 2 Rocket 3.2 05:27:30 32° WNW 05:29:47 74° N 05:34:42 10° E
USA 229 DEB 3.8 05:25:53 18° NW 05:31:24 63° WSW 05:38:32 10° SSE
USA 229 3.8 05:25:56 17° NW 05:31:30 64° WSW 05:38:39 10° SSE
Aureole 2 Rocket 3.5 05:33:56 30° WNW 05:34:55 34° W 05:38:37 10° SSW
Cosmos 2058 3.1 05:31:01 10° N 05:35:08 71° E 05:39:15 10° SSE
Cosmos 2227 4.1 05:30:03 10° SSW 05:35:37 71° WNW 05:41:14 10° NNE
Aureole 1 4.0 05:33:44 10° SSW 05:36:42 80° WNW 05:39:59 10° NNE
CSL-04 Rocket 3.5 05:32:18 10° N 05:37:37 82° WNW 05:42:53 10° SSW
Cosmos 540 Rocket 4.4 05:37:02 24° W 05:38:03 26° W 05:42:12 10° SSW
Cosmos 1777 Rocket 3.9 05:33:59 10° SSW 05:39:09 66° WNW 05:44:21 10° N
PSLV R/B 4.2 05:44:07 26° NW 05:45:14 33° NNW 05:48:20 10° NE
Cosmos 2237 Rocket 3.6 05:46:37 16° W 05:46:56 16° W 05:50:20 10° SW
DELTA 2 R/B (1) 3.5 05:43:03 15° WSW 05:47:43 77° NNW 05:53:18 10° ENE
Cosmos 1703 4.0 05:44:43 10° N 05:48:34 55° E 05:52:25 10° SSE
CSL-04 DEB 4.5 05:44:58 10° N 05:49:19 66° WNW 05:53:33 10° SSW
COSMO-SKYMED 1 3.3 05:46:15 10° SSW 05:50:06 31° W 05:53:55 10° NW
SL-16 R/B 2.7 05:46:41 12° NW 05:51:29 39° WSW 05:56:42 10° S
ERBS 3.6 05:51:32 10° NNW 05:54:44 37° NE 05:57:56 10° ESE
Cosmos 249 4.5 05:53:44 10° SW 05:57:27 76° WNW 06:01:10 10° NNE
Cosmos 2151 3.4 05:54:37 10° NNW 05:58:34 39° W 06:02:31 10° SSW
Cosmos 1356 Rocket 3.8 05:55:26 10° N 05:59:31 66° E 06:03:40 10° SSE
Cosmos 1271 Rocket 3.6 05:56:18 10° SW 05:59:36 27° WNW 06:02:54 10° NNW
IDEFIX/ARIANE 42P 2.8 05:54:26 10° NNE 05:59:44 79° ESE 06:04:59 10° S
AQUARIUS 4.5 05:56:35 10° NNE 06:01:06 72° ESE 06:05:34 10° S
Meteor 1-28 Rocket 3.9 05:57:56 10° SSW 06:01:19 32° W 06:04:42 10° NNW
Cosmos 1340 Rocket 2.9 05:58:03 10° NNW 06:01:53 52° W 06:05:44 10° S
Cosmos 1805 Rocket 3.6 05:58:53 10° N 06:03:19 89° ENE 06:07:41 10° S
CZ-3 Stage 3 3.5 06:00:32 12° W 06:04:47 64° S 06:26:35 10° ESE
USA 234 4.1 06:03:03 10° ESE 06:09:13 46° NE 06:15:25 10° NNW
Cosmos 1538 Rocket 4.4 06:04:24 10° NNW 06:09:29 43° WSW 06:14:30 10° S
EP 2 4.1 06:08:32 10° SW 06:11:13 75° WNW 06:13:49 10° NNE
SL-14 R/B 4.4 06:08:29 10° NW 06:11:49 25° W 06:15:09 10° SW
Cosmos 923 Rocket 4.0 06:11:48 10° NNW 06:17:03 89° W 06:22:19 10° SSE
Cosmos 1484 Rocket 3.9 06:13:39 10° NNE 06:17:34 50° E 06:21:24 10° S
SJ-12 4.1 06:14:48 10° N 06:18:45 49° WNW 06:22:40 10° SSW
Cosmos 1626 2.1 06:15:20 10° N 06:19:03 73° W 06:22:46 10° S
Ariane Rocket 4.0 06:15:02 10° NNW 06:19:05 25° WNW 06:23:10 10° WSW
Cosmos 292 Rocket 3.8 06:16:36 10° NNW 06:21:25 87° ENE 06:26:13 10° SSE
Cosmos 2034 Rocket 4.2 06:17:53 10° SSW 06:23:49 50° W 06:29:51 10° N
Cosmos 389 Rocket 2.5 06:21:53 10° SSW 06:25:29 64° W 06:29:08 10° N
Cosmos 1898 Rocket 4.2 06:20:22 10° S 06:25:30 63° ESE 06:30:44 10° NNE
Cosmos 1680 Rocket 3.7 06:20:36 10° NNW 06:25:56 83° ENE 06:31:16 10° SSE
NOSS 3-1 (C) 4.2 06:18:36 10° NW 06:26:24 68° WSW 06:34:45 10° SSE
